Location: Czekan�w
(50.3488°N, 18.7344°E)
Time: 04:59:42
(UTC+00:00)

ADEOS - Pass Details

Date: 17 February 2020
Orbit: 793 x 794 km, 98.9° (Epoch: 29 March)

Event Time Altitude Azimuth Distance (km) Brightness Sun altitude
Rises 02:36:51 0° 17° (NNE) 3,309 7.3 -31.7°
Reaches altitude 10° 02:39:14 10° 21° (NNE) 2,375 6.5 -31.4°
Enters shadow 02:44:12 60° 89° (E) 913 4.0 -30.6°
